Simultaneous Nadir Overpasses (SNOs) Predictions

Prediction of SNOs between NPP and TERRA Satellite Orbit:

Table of predicted SNOs for the next 14.0 days since TLE Epoch: 8/22/2015
Index Date (NPP) Time (NPP) Lat,Lon (NPP) SZA (NPP ) Date (TERRA) Time (TERRA) Lat,Lon (TERRA) SZA (TERRA ) Distance(km) Time Diff (sec)
1 08/23/2015 00:28:02 -69.73, -9.17 121.97 08/23/2015 00:29:09 -69.63, -6.91 122.10 87.68 67
2 08/23/2015 01:18:29 68.70, 159.57 57.00 08/23/2015 01:18:51 68.69, 159.51 56.98 2.76 22
3 08/23/2015 02:09:10 -68.56, -32.93 123.14 08/23/2015 02:08:21 -68.58, -32.99 123.12 3.27 49
4 08/25/2015 16:44:38 -68.86, 107.83 121.95 08/25/2015 16:45:50 -68.85, 107.95 121.96 5.18 72
5 08/25/2015 17:35:21 68.69, -84.63 57.89 08/25/2015 17:35:18 68.68, -84.62 57.88 1.17 3
6 08/25/2015 18:26:02 -68.55, 82.87 122.24 08/25/2015 18:24:48 -68.57, 82.89 122.21 2.72 74
7 08/28/2015 09:01:28 -68.74,-136.24 121.13 08/28/2015 09:02:18 -68.77,-136.25 121.11 3.39 50
8 08/28/2015 09:52:12 68.62, 31.22 58.76 08/28/2015 09:51:46 68.60, 31.18 58.74 3.29 26
9 08/28/2015 10:42:38 -67.68,-160.26 122.18 08/28/2015 10:41:30 -67.72,-162.24 122.13 83.55 68
10 08/31/2015 00:27:54 69.73, 170.83 60.82 08/31/2015 00:29:00 69.62, 173.11 60.69 88.77 66
11 08/31/2015 01:18:19 -68.74, -20.46 120.19 08/31/2015 01:18:44 -68.74, -20.40 120.19 2.27 25
12 08/31/2015 02:09:02 68.57, 147.08 59.66 08/31/2015 02:08:12 68.57, 147.02 59.66 2.12 50
13 09/02/2015 16:44:29 68.82, -72.12
